Fort Lewis, WA
on Wednesday, February 20, 2013

Wednesday
Previous Day Next Day
Daily Summary
 ActualAverage (KOLM)Record (KOLM)
Temperature
Mean Temperature °F 41°F  
Max Temperature 45°F 50°F 61°F (1995)
Min Temperature 27°F 33°F 19°F (1986)
Degree Days
Heating Degree Days 29 24  
Month to date heating degree days 481  
Since 1 July heating degree days 3532  
Cooling Degree Days 0 0  
Month to date cooling degree days 0  
Year to date cooling degree days 0  
Moisture
Dew Point 36°F   
Average Humidity 87    
Maximum Humidity 100    
Minimum Humidity 70    
Precipitation
Precipitation 0.08 in 0.18 in 1.69 in (1961)
Month to date precipitation 3.85  
Year to date precipitation 11.69  
Wind
Wind Speed 4 mph   
Max Wind Speed 12 mph   
Max Gust Speed mph   
Visibility 10 miles   
Events Rain   

Key: T is trace of precipitation, MM is missing value
Source: NWS Daily Summary
Time(PST)TemperatureDew PointHumidity Pressure Visibility Wind DirectionWind SpeedGust SpeedPrecipitationEvents Conditions
12:58 AM 27.3°F 26.4°F 96% 30.01 in 10.0 miles East 1.2 mph - N/A   Clear
1:58 AM 29.3°F 28.6°F 97% 30.01 in 10.0 miles East 2.3 mph - N/A   Clear
2:23 AM 28.4°F 26.6°F 93% 30.03 in 10.0 miles East 1.2 mph - N/A   Mostly Cloudy
2:58 AM 28.4°F 27.7°F 97% 30.05 in 10.0 miles Calm Calm - N/A   Overcast
3:08 AM 28.4°F 28.4°F 100% 30.03 in 10.0 miles East 2.3 mph - N/A   Mostly Cloudy
3:58 AM 29.3°F 28.8°F 98% 30.05 in 10.0 miles East 2.3 mph - N/A   Overcast
4:58 AM 31.6°F 30.6°F 96% 30.06 in 10.0 miles East 2.3 mph - N/A   Overcast
5:58 AM 33.4°F 32.4°F 96% 30.06 in 10.0 miles Calm Calm - N/A   Overcast
6:58 AM 32.7°F 31.6°F 96% 30.05 in 10.0 miles ESE 4.6 mph - N/A   Overcast
7:58 AM 33.4°F 32.4°F 96% 30.05 in 10.0 miles ESE 3.5 mph - N/A   Overcast
8:58 AM 35.6°F 34.0°F 94% 30.03 in 10.0 miles SE 6.9 mph - N/A   Overcast
9:58 AM 38.7°F 35.1°F 87% 30.03 in 10.0 miles SE 6.9 mph - N/A   Overcast
11:19 AM 42.8°F 37.4°F 81% 30.05 in 10.0 miles SSE 9.2 mph - N/A   Light Drizzle
11:29 AM 41.0°F 37.4°F 87% 30.04 in 8.0 miles SSE 6.9 mph - N/A Rain Light Rain
11:40 AM 42.8°F 39.2°F 87% 30.03 in 10.0 miles SSE 9.2 mph - N/A   Overcast
11:50 AM 44.6°F 37.4°F 76% 30.03 in 10.0 miles SSE 11.5 mph - N/A   Mostly Cloudy
11:58 AM 44.1°F 37.8°F 78% 30.05 in 10.0 miles SSE 11.5 mph - 0.00 in   Mostly Cloudy
12:18 PM 44.6°F 37.4°F 76% 30.02 in 10.0 miles SSE 10.4 mph - N/A   Mostly Cloudy
12:28 PM 44.6°F 37.4°F 76% 30.02 in 10.0 miles SSE 11.5 mph - N/A   Overcast
12:38 PM 44.6°F 37.4°F 76% 30.02 in 10.0 miles SSE 10.4 mph - N/A   Overcast
12:43 PM 44.6°F 35.6°F 71% 30.02 in 10.0 miles SSE 6.9 mph - N/A   Overcast
12:58 PM 45.1°F 36.0°F 70% 30.03 in 10.0 miles SSE 11.5 mph - N/A   Mostly Cloudy
1:53 PM 44.6°F 35.6°F 71% 29.99 in 10.0 miles SSE 8.1 mph - N/A   Mostly Cloudy
1:58 PM 44.8°F 35.6°F 70% 30.01 in 10.0 miles SSE 5.8 mph - N/A   Mostly Cloudy
2:08 PM 44.6°F 35.6°F 71% 29.99 in 10.0 miles SSE 11.5 mph - N/A   Overcast
2:13 PM 44.6°F 35.6°F 71% 29.99 in 10.0 miles SSE 9.2 mph - N/A   Overcast
2:18 PM 44.6°F 35.6°F 71% 29.99 in 10.0 miles SSE 8.1 mph - N/A   Light Drizzle
2:26 PM 44.6°F 35.6°F 71% 29.98 in 10.0 miles SSE 4.6 mph - N/A   Overcast
2:37 PM 44.6°F 35.6°F 71% 29.98 in 9.0 miles SSE 11.5 mph - N/A Rain Light Rain
2:48 PM 42.8°F 37.4°F 81% 29.98 in 10.0 miles SSE 6.9 mph - N/A   Overcast
2:58 PM 43.2°F 37.4°F 80% 30.00 in 10.0 miles SSE 4.6 mph - 0.01 in   Overcast
3:28 PM 42.8°F 37.4°F 81% 29.98 in 10.0 miles SSE 3.5 mph - N/A   Mostly Cloudy
3:33 PM 44.6°F 37.4°F 76% 29.98 in 10.0 miles SSE 2.3 mph - N/A   Mostly Cloudy
3:43 PM 44.6°F 37.4°F 76% 29.98 in 10.0 miles SSE 3.5 mph - N/A   Overcast
3:55 PM 44.6°F 37.4°F 76% 29.98 in 8.0 miles SSE 4.6 mph - N/A   Light Drizzle
3:58 PM 43.7°F 38.1°F 81% 30.00 in 8.0 miles SSE 6.9 mph - 0.01 in   Light Drizzle
4:03 PM 42.8°F 37.4°F 81% 29.99 in 8.0 miles SSE 2.3 mph - N/A   Light Drizzle
4:07 PM 42.8°F 39.2°F 87% 29.99 in 10.0 miles SSE 2.3 mph - N/A   Overcast
4:15 PM 42.8°F 39.2°F 87% 29.99 in 10.0 miles SSE 4.6 mph - N/A   Light Drizzle
4:58 PM 42.1°F 39.0°F 89% 30.01 in 10.0 miles SSE 5.8 mph - 0.04 in   Light Drizzle
5:03 PM 41.0°F 39.2°F 93% 29.99 in 10.0 miles SSE 3.5 mph - N/A   Light Drizzle
5:06 PM 41.0°F 39.2°F 93% 29.99 in 10.0 miles SSE 3.5 mph - N/A   Overcast
5:58 PM 41.5°F 39.0°F 91% 30.01 in 10.0 miles SSE 2.3 mph - 0.01 in   Overcast
6:53 PM 41.0°F 39.2°F 93% 30.00 in 10.0 miles East 2.3 mph - N/A   Mostly Cloudy
6:58 PM 41.2°F 39.9°F 95% 30.02 in 10.0 miles East 2.3 mph - N/A   Mostly Cloudy
7:08 PM 41.0°F 39.2°F 93% 30.00 in 10.0 miles East 1.2 mph - N/A   Mostly Cloudy
7:58 PM 40.5°F 39.9°F 98% 30.02 in 10.0 miles Calm Calm - N/A   Overcast
8:48 PM 41.0°F 39.2°F 93% 30.00 in 10.0 miles NE 1.2 mph - N/A   Overcast
8:58 PM 40.5°F 39.9°F 98% 30.03 in 10.0 miles Calm Calm - N/A   Overcast
9:03 PM 41.0°F 39.2°F 93% 30.01 in 10.0 miles NNE 1.2 mph - N/A   Light Drizzle
9:20 PM 41.0°F 39.2°F 93% 30.00 in 8.0 miles ENE 2.3 mph - N/A   Overcast
9:58 PM 39.9°F 39.7°F 99% 30.03 in 10.0 miles ENE 2.3 mph - 0.01 in   Overcast
10:53 PM 39.2°F 39.2°F 100% 30.02 in 10.0 miles Calm Calm - N/A   Mostly Cloudy
10:58 PM 39.0°F 38.8°F 99% 30.04 in 10.0 miles ENE 1.2 mph - N/A   Mostly Cloudy
11:23 PM 37.4°F 37.4°F 100% 30.02 in 8.0 miles NE 1.2 mph - N/A   Mostly Cloudy
11:28 PM 39.2°F 37.4°F 93% 30.02 in 10.0 miles ENE 1.2 mph - N/A   Overcast
11:33 PM 39.2°F 39.2°F 100% 30.01 in 10.0 miles Calm Calm - N/A   Overcast
11:58 PM 38.5°F 38.3°F 99% 30.03 in 10.0 miles Calm Calm - N/A   Overcast
Moon Phase
Feb. 20 Feb. 25 Mar. 04 Mar. 11 Mar. 19
Sunrise:07:05 AM (PST) Moon Rise:12:57 PM (PST)
Sunset:05:42 PM (PST) Moon Set:03:42 AM (PST)

Copyright © 2014 The Weather Underground, Inc.